User: anonymous   Login
Location: Unspecified
(0.0000°N, 0.0000°E)
Time: 02:28:23
(UTC+02:00)
Language:

NOAA 12 - Orbit

View from above orbital plane
View from above orbital plane
View from above satellite
View from above satellite

Ground track
Ground track

The orbit data is extracted from the following two-line orbital elements,

1 21263U 91032A   18141.60293811 -.00000005 +00000-0 +15668-4 0  9990
2 21263 098.5381 162.4882 0013950 017.9255 342.2414 14.25868264404697
Epoch (UTC): 21 May 2018 14:28:13
Eccentricity: 0.0013950
inclination: 98.5381°
perigee height: 795 km
apogee height: 815 km
right ascension of ascending node: 162.4882°
argument of perigee: 17.9255°
revolutions per day: 14.25868264
mean anomaly at epoch: 342.2414°
orbit number at epoch: 40469

The dashed part of the orbit path shows where the satellite is in the earth's shadow,  

DLR